Regional Weather Roundup
Issued by NWS Green Bay, WI

Home | Current Version | Previous Version | Graphics & Text | Print | Product List | Glossary Off
Versions: 1 2 3 4 5 6 7 8 9 10 11 12 13 14 15 16 17 18 19 20 21 22 23 24 25 26 27 28 29 30 31 32 33 34 35 36 37 38 39 40 41 42 43 44 45 46 47 48 49 50

000
ASUS43 KGRB 131000
RWRGRB

NORTH-CENTRAL AND NORTHEAST WISCONSIN REGIONAL WEATHER ROUNDUP
NATIONAL WEATHER SERVICE GREEN BAY WI
400 AM CST WED DEC 13 2017

WIZ005-009-010>012-018-019-131100-
NORTH CENTRAL WISCONSIN

CITY           SKY/WX    TMP DP  RH WIND       PRES   REMARKS
IRONWOOD       CLOUDY    13   9  84 SE9       29.51F WCI   1
MANITOWISH WTR NOT AVBL
ARBOR VITAE    NOT AVBL
EAGLE RIVER    NOT AVBL
LAND O LAKES   NOT AVBL
RHINELANDER    CLOUDY    12   9  87 SE9       29.53F WCI   0
PHILLIPS       NOT AVBL
ANTIGO         NOT AVBL
TOMAHAWK       NOT AVBL
MERRILL        NOT AVBL
$$

WIZ013-073-131100-
NORTHEAST WISCONSIN

CITY           SKY/WX    TMP DP  RH WIND       PRES   REMARKS
IRON MOUNTAIN  LGT SNOW  11   5  77 SE8       29.63F WCI  -1
MARINETTE      LGT SNOW  14  10  84 CALM      29.71F FOG
$$

WIZ017-030-035>037-045-131100-
CENTRAL WISCONSIN

CITY           SKY/WX    TMP DP  RH WIND       PRES   REMARKS
MEDFORD        NOT AVBL
WAUSAU         CLOUDY    14  10  84 SE12      29.56F WCI   0
MOSINEE        NOT AVBL
MARSHFIELD     CLOUDY    17  12  80 SE10      29.51F WCI   5
WISC RAPIDS    CLOUDY    18  11  74 SE9       29.57F WCI   7
STEVENS POINT  NOT AVBL
WAUPACA        NOT AVBL
SHAWANO        NOT AVBL
CLINTONVILLE   NOT AVBL
WAUTOMA        CLOUDY    19  11  70 SE5       29.63F
$$

WIZ038-039-048-051-131100-
FOX VALLEY

CITY           SKY/WX    TMP DP  RH WIND       PRES   REMARKS
NWS GREEN BAY  LGT SNOW  16   9  74 SE8       29.69F WCI   5
APPLETON       NOT AVBL
OSHKOSH        CLOUDY    18  10  71 SE12      29.65F WCI   5
FOND DU LAC    CLOUDY    20  10  65 S12       29.65F WCI   8
$$

WIZ022-050-052-131100-
EAST CENTRAL WISCONSIN

CITY           SKY/WX    TMP DP  RH WIND       PRES   REMARKS
EPHRAIM        NOT AVBL
WASHINGTON ISL NOT AVBL
STURGEON BAY   FLURRIES  15   8  73 SE5       29.71F WCI   8
MANITOWOC      MIX PCPN  16  11  80 S5        29.71F WCI   9
SHEBOYGAN      MIX PCPN  17  12  80 SE3       29.70F
$$

LMZ563-521-522-541>543-131100-
LAKESHORE

STATION/POSITION TIME  TEMP    WIND        PRES    VSBY  WAVE
                       AIR SEA DIR/SP/G                  HT/PER
                 (UTC) (F)     (DEG/KT/KT) (MB)    (MI)  (FT/S)
SHEBOYGAN LKSHOR 0900   17     200/  8/  9 1009.0F
KEWAUNEE LKSHORE 0930   15     210/  5/  6 1006.4F
NORTHPORT PIER   0941   17     170/  1/  3 1006.8F
MENOMINEE LKSHOR 0930   19     150/  7/  9 1006.3F
$$




USA.gov is the U.S. government's official web portal to all federal, state and local government web resources and services.